Weather observations for the past three days for
Rogers - Rogers Executive Airport - Carter Field
Metric (Imperial)
Date Time (cdt) Wind (kph) Vis. (km) Weather Sky Cond. Temperature (ºC) Relative Humidity Wind Chill (°C) Heat Index (°C) Pressure Precipitation (cm)
Air Dwpt 6 hour altimeter (cm) sea level (mb) 1 hr 3 hr 6 hr
Max. Min.
02 08:58 S 13 16.09 Fair CLR 29.4 20 57% 31 76.48 1017.6
02 07:58 SE 7 16.09 Fair CLR 26.7 20 67% 28 76.45 1017.4
02 06:58 SE 6 16.09 Fair CLR 24.4 20 27.8 24.4 77% 25 76.43 1016.8
02 05:58 S 9 16.09 Fair CLR 25 20 74% 26 76.38 1016.3
02 04:58 SE 11 16.09 Fair CLR 25.6 19.4 69% 27 76.35 1015.9
02 03:58 S 11 16.09 Fair CLR 25.6 19.4 69% 27 76.35 1015.9
02 02:58 SE 7 16.09 Fair CLR 26.1 19.4 67% 27 76.35 1015.9
02 01:58 SE 9 16.09 Fair CLR 26.7 19.4 64% 28 76.38 1016.0
02 00:58 S 13 16.09 Fair CLR 27.8 19.4 35 27.8 60% 29 76.35 1016.0
01 23:58 S 11 16.09 Fair CLR 28.3 18.9 57% 30 76.35 1015.7
01 22:58 SE 11 16.09 Fair CLR 28.9 18.9 55% 30 76.33 1015.5
01 21:58 SE 11 16.09 Fair CLR 30 18.3 49% 31 76.3 1015.1
01 20:58 SE 11 16.09 Fair CLR 30.6 17.2 45% 31 76.23 1014.4
01 19:58 SE 9 16.09 Fair CLR 32.8 16.7 38% 33 76.2 1014.0
01 18:58 SE 11 16.09 Fair CLR 35 16.7 37.2 33.3 34% 35 76.23 1014.2
01 17:58 S 15 16.09 Fair CLR 36.1 16.7 32% 37 76.25 1014.5
01 16:58 SE 19 G 33 16.09 A Few Clouds FEW085 36.1 16.7 32% 37 76.23 1014.2
01 15:58 S 13 16.09 A Few Clouds FEW075 37.2 17.2 31% 38 76.28 1014.7
01 14:58 E 17 16.09 Partly Cloudy SCT100 36.1 18.3 35% 38 76.33 1015.4
01 13:58 NE 11 16.09 Partly Cloudy SCT070 SCT085 36.1 18.3 35% 38 76.38 1016.1
01 12:58 Vrbl 6 16.09 Overcast BKN070 OVC090 33.9 17.2 35.6 23.9 37% 35 76.45 1017.2
01 11:58 Vrbl 7 G 26 16.09 Fair CLR 35 18.9 39% 37 76.5 1017.8
01 10:58 SW 17 16.09 Partly Cloudy SCT090 32.8 19.4 45% 35 76.53 1018.3
01 09:58 SW 20 16.09 Fair CLR 31.7 19.4 48% 33 76.53 1018.3
01 08:58 S 11 16.09 Fair CLR 30 20 55% 32 76.53 1018.4
01 07:58 S 7 14.48 Fair CLR 26.1 19.4 67% 27 76.5 1018.2
01 06:58 SE 6 16.09 Fair CLR 23.9 18.9 26.7 23.3 74% 25 76.45 1017.4
01 05:58 SE 7 16.09 Fair CLR 24.4 18.9 72% 25 76.43 1017.0
01 04:58 S 7 16.09 Partly Cloudy SCT095 25.6 18.3 64% 27 76.4 1016.5
01 03:58 S 7 16.09 Partly Cloudy SCT090 25.6 18.3 64% 27 76.4 1016.4
01 02:58 SE 7 16.09 Overcast OVC090 25.6 17.8 62% 27 76.38 1016.2
01 01:58 SE 9 16.09 Fair CLR 26.1 17.2 58% 27 76.38 1016.3
31 23:58 SE 9 16.09 Fair CLR 27.2 16.7 53% 28 76.35 1016.0
31 22:58 SE 9 16.09 Fair CLR 28.3 16.1 48% 29 76.35 1015.9
31 21:58 SE 13 16.09 Fair CLR 30 16.1 43% 30 76.35 1015.7
31 20:58 SE 11 16.09 Fair CLR 30.6 16.7 43% 31 76.3 1015.2
31 19:58 S 9 16.09 Fair CLR 32.8 15.6 35% 33 76.25 1014.5
31 17:58 SE 13 16.09 Mostly Cloudy BKN095 36.7 15.6 28% 37 76.23 1014.2
31 16:58 SE 7 16.09 Mostly Cloudy BKN090 36.7 15 27% 37 76.25 1014.4
31 15:58 S 11 16.09 Fair CLR 37.2 15.6 28% 37 76.28 1014.7
31 14:58 SW 17 G 28 16.09 Partly Cloudy SCT085 37.2 16.1 29% 38 76.33 1015.3
31 13:58 Vrbl 6 16.09 Fair CLR 36.1 15.6 29% 36 76.38 1016.0
31 12:58 SW 15 16.09 Mostly Cloudy SCT080 BKN090 35.6 15.6 36.7 23.3 30% 36 76.43 1016.9
31 11:58 SW 19 16.09 A Few Clouds FEW090 33.9 17.8 38% 35 76.48 1017.5
31 10:58 SW 15 16.09 Fair CLR 33.3 18.3 41% 34 76.48 1017.5
31 09:58 S 24 16.09 Fair CLR 32.2 18.9 45% 34 76.48 1017.4
31 08:58 S 13 16.09 Fair CLR 28.3 18.9 57% 30 76.48 1017.6
31 07:58 S 11 16.09 Fair CLR 25.6 17.8 62% 27 76.43 1017.1
31 06:58 SE 9 16.09 Fair CLR 23.3 17.2 26.7 23.3 69% 76.38 1016.5
31 05:58 SE 7 16.09 Fair CLR 23.3 16.7 67% 76.35 1015.8
31 04:58 S 11 16.09 Fair CLR 24.4 16.7 62% 25 76.33 1015.5
31 03:58 SE 6 16.09 Fair CLR 24.4 16.1 60% 26 76.3 1015.3
31 02:58 SE 7 16.09 Fair CLR 25 16.1 58% 26 76.28 1014.9
31 01:58 SE 13 16.09 Fair CLR 26.1 16.1 54% 27 76.3 1015.1
31 00:58 SE 11 16.09 Fair CLR 26.7 15.6 35.6 26.7 51% 27 76.3 1015.3
30 23:58 SE 13 16.09 Fair CLR 27.8 16.1 49% 28 76.28 1015.0
30 22:58 S 19 16.09 Fair CLR 28.9 16.7 48% 29 76.25 1014.6
30 21:58 SE 17 16.09 Fair CLR 29.4 16.7 46% 30 76.23 1014.4
30 20:58 SE 19 16.09 Fair CLR 30.6 15.6 40% 30 76.2 1013.9
30 19:58 S 9 16.09 Fair CLR 32.2 15 35% 32 76.15 1013.5
30 18:58 S 19 16.09 Fair CLR 35.6 14.4 37.8 35 28% 35 76.15 1013.4
30 17:58 S 22 G 30 16.09 Mostly Cloudy BKN095 36.7 14.4 26% 36 76.15 1013.4
30 16:58 SE 15 16.09 A Few Clouds FEW095 37.2 13.9 25% 37 76.15 1013.3
30 15:58 SW 22 G 30 16.09 Fair CLR 37.8 14.4 25% 38 76.17 1013.6
30 14:58 SW 19 G 30 16.09 Fair CLR 36.7 15 27% 37 76.25 1014.4
30 13:58 Vrbl 9 G 26 16.09 Fair CLR 36.1 15.6 29% 36 76.28 1015.0
30 12:58 SW 20 G 33 16.09 Fair CLR 35 15.6 35.6 21.7 31% 35 76.33 1015.7
30 11:58 SW 20 16.09 Fair CLR 33.9 15 32% 34 76.4 1016.5
30 10:58 SW 22 G 35 16.09 Fair CLR 32.8 15.6 35% 33 76.43 1016.9
30 09:58 S 28 16.09 Fair CLR 30.6 16.1 42% 31 76.4 1016.8
Date Time (cdt) Wind (kph) Vis. (km) Weather Sky Cond. Air Dwpt Max. Min. Relative Humidity Wind Chill (°C) Heat Index (°C) altimeter (cm) sea level (mb) 1 hr 3 hr 6 hr
6 hour
Temperature (ºC) Pressure Precipitation (cm)